星链-3366 (STARLINK-3366 )

导读

STARLINK-3366是美国太空探索技术公司(SpaceX)Starlink星链互联网星座中的一颗卫星,于北京时间2022年1月19日,由SpaceX通过猎鹰9号火箭发射入轨,属于星链星座组网任务的组成部分。星链星座旨在为全球提供低延迟、高速率的卫星互联网服务,STARLINK-3366运行在近地轨道,承担全球互联网覆盖服务,助力星链完成全球通信网络的搭建,截至目前仍在轨道正常服务。

Basic Information
目录编号:
51104
目录名称:
STARLINK-3366
国际标识:
2022-005A
轨道中心:
EARTH
卫星名称:
星链-3366
卫星全名:
星链-3366 (STARLINK-3366 )
卫星状态:
在轨 (已飞行1697 天)
发射日期:
2022-01-19 UTC
国别 :
美国 (US)
星等 :
--
This satellite is enrolled in the Space Conjunction Data Service (SCDS) and the current flight risk assessment level is: No High Risk
Orbit Information
数据来源 国际轨道数据
星历时间: 2026-09-11T12:36:43+0800
1天前
查看轨道信息
半长轴: 6880.166km
偏心率: 0.0001569
轨道倾角: 53.197°
近地点辐角 80.803°
升交点赤经 173.807°
平近点角 279.314°
近地点: 500.949km
远地点: 503.109km
周期: 94.658分钟
每日圈数: 15.212636
Detailed Information
固有亮度:
5
最大亮度:
2.5
卫星平台:
Starlink v1.5
覆盖范围:
全球
运营商:
太空探索技术公司
运营商所在国:
美国
制造商(研发单位):
太空探索技术公司
制造商所在国:
美国
使用方式:
暂无
Satellite Introduction
星链(Starlink)计划是由太空探索技术公司(SpaceX)提出的一个巨型低轨卫星互联网星座项目,计划在2019年至2024年间在太空搭建由约1.2万颗卫星组成的“星链”网络,其中1584颗将部署在地球上空550千米处的近地轨道,并从2020年开始工作。该卫星仍在工作。
2D Orbit Map
3D Orbit Map
Orbit Altitude Analysis Chart
Orbit Inclination Analysis Chart
Orbit Comprehensive Analysis Chart
View Comprehensive Chart
Conjunction Data List
Event ID Objects TCA Miss Dist (km) Collision Risk Probability Collision Risk Index (CRI) Action
CDM_260912-163005-110408-776421
2026-09-12T
16:30:53+0000
1.423 km
极远距离
3.812605E-6 低风险 0.47
CDM_260914-084703-350505-110421
2026-09-14T
08:47:59+0000
1.669 km
极远距离
2.73595E-6 低风险 0.44
CDM_260910-145905-110406-672822
2026-09-10T
14:59:12+0000
2.592 km
极远距离
1.615841E-6 低风险 0.39
CDM_260913-065605-110406-727521
2026-09-13T
06:56:39+0000
2.832 km
极远距离
1.431106E-6 低风险 0.38
Miss Distance Evolution Trend with All Objects
Collision Probability Evolution Trend with All Objects